Powrót do katalogu

STARLINK-36975

AktywnyŁącznośćVLEO
NORAD 67993·PAYLOAD·🇺🇸 United States

Wystrzelony Feb 27, 2026 z Vandenberg Space Force Base

Loading…

Następne Przeloty (najbliższe 24 godziny)

TLE

ŚwieżeSource: CelesTrak SupGP

Epoka: Sep 14, 2026, 20:55 UTC

1 67993C 26039H   26257.87201389  .00047121  00000+0  17069-2 0  2570
2 67993  43.0030  60.5903 0001906 273.4362 166.4648 15.27551261    13

Śledź STARLINK-36975 w czasie rzeczywistym z AllMySat

Download on the App Store